| time (UTC) | temp F | wind direction | speed MPH | gust MPH | rain 1hr in | rain 24hr in | rain mn in | humidity % | barometer mb |
| 20260506204016 | 58 | 304 | 5.0 | 10.0 | 0.00 | 0.00 | 0.00 | 40 | 1013.4 |
| 20260506203016 | 57 | 304 | 5.0 | 13.0 | 0.00 | 0.00 | 0.00 | 41 | 1013.5 |
| 20260506202016 | 57 | 301 | 5.0 | 9.0 | 0.00 | 0.00 | 0.00 | 41 | 1013.5 |
| 20260506201016 | 57 | 305 | 5.0 | 11.0 | 0.00 | 0.00 | 0.00 | 41 | 1013.7 |
| 20260506200036 | 56 | 306 | 5.0 | 9.0 | 0.00 | 0.00 | 0.00 | 42 | 1013.8 |
| 20260506195037 | 56 | 312 | 4.0 | 8.0 | 0.00 | 0.00 | 0.00 | 43 | 1013.9 |
| 20260506194017 | 56 | 306 | 6.0 | 11.0 | 0.00 | 0.00 | 0.00 | 44 | 1014.0 |
| 20260506193017 | 56 | 305 | 6.0 | 9.0 | 0.00 | 0.00 | 0.00 | 43 | 1014.0 |
| 20260506192017 | 56 | 304 | 4.0 | 8.0 | 0.00 | 0.00 | 0.00 | 44 | 1014.0 |
| 20260506191017 | 55 | 312 | 5.0 | 11.0 | 0.00 | 0.00 | 0.00 | 44 | 1014.1 |
| 20260506190018 | 55 | 310 | 4.0 | 8.0 | 0.00 | 0.00 | 0.00 | 46 | 1014.0 |
| 20260506185019 | 55 | 309 | 3.0 | 7.0 | 0.00 | 0.00 | 0.00 | 47 | 1014.1 |
| 20260506184018 | 56 | 308 | 4.0 | 9.0 | 0.00 | 0.00 | 0.00 | 46 | 1014.2 |
| 20260506183018 | 56 | 308 | 5.0 | 9.0 | 0.00 | 0.00 | 0.00 | 45 | 1014.0 |
| 20260506182018 | 56 | 305 | 4.0 | 9.0 | 0.00 | 0.00 | 0.00 | 45 | 1014.0 |
| 20260506181021 | 56 | 309 | 3.0 | 8.0 | 0.00 | 0.00 | 0.00 | 46 | 1014.1 |
| 20260506180015 | 55 | 308 | 4.0 | 9.0 | 0.00 | 0.00 | 0.00 | 46 | 1014.1 |
| 20260506175016 | 55 | 306 | 3.0 | 7.0 | 0.00 | 0.00 | 0.00 | 45 | 1014.2 |
| 20260506174016 | 55 | 312 | 3.0 | 7.0 | 0.00 | 0.00 | 0.00 | 43 | 1014.2 |
| 20260506173036 | 56 | 312 | 4.0 | 8.0 | 0.00 | 0.00 | 0.00 | 42 | 1014.3 |
| 20260506172016 | 57 | 311 | 4.0 | 10.0 | 0.00 | 0.00 | 0.00 | 42 | 1014.3 |
| 20260506171016 | 56 | 313 | 3.0 | 8.0 | 0.00 | 0.00 | 0.00 | 43 | 1014.3 |
| 20260506170016 | 56 | 307 | 3.0 | 8.0 | 0.00 | 0.00 | 0.00 | 44 | 1014.2 |
| 20260506165016 | 56 | 309 | 4.0 | 10.0 | 0.00 | 0.00 | 0.00 | 43 | 1014.1 |
| 20260506164017 | 55 | 316 | 3.0 | 7.0 | 0.00 | 0.00 | 0.00 | 42 | 1014.1 |
| 20260506163017 | 55 | 310 | 4.0 | 8.0 | 0.00 | 0.00 | 0.00 | 42 | 1014.1 |
| 20260506162017 | 55 | 316 | 3.0 | 7.0 | 0.00 | 0.00 | 0.00 | 42 | 1014.1 |
| 20260506161017 | 55 | 330 | 3.0 | 7.0 | 0.00 | 0.00 | 0.00 | 41 | 1014.0 |
| 20260506160017 | 54 | 318 | 3.0 | 8.0 | 0.00 | 0.00 | 0.00 | 44 | 1014.0 |
| 20260506155018 | 55 | 309 | 3.0 | 5.0 | 0.00 | 0.00 | 0.00 | 44 | 1014.0 |
| 20260506154018 | 55 | 313 | 3.0 | 7.0 | 0.00 | 0.00 | 0.00 | 45 | 1014.0 |
| 20260506153018 | 54 | 310 | 2.0 | 4.0 | 0.00 | 0.00 | 0.00 | 47 | 1014.0 |
| 20260506152038 | 54 | 312 | 3.0 | 6.0 | 0.00 | 0.00 | 0.00 | 46 | 1014.1 |
| 20260506151018 | 54 | 308 | 1.0 | 4.0 | 0.00 | 0.00 | 0.00 | 49 | 1014.2 |
| 20260506150016 | 53 | 303 | 1.0 | 5.0 | 0.00 | 0.00 | 0.00 | 48 | 1014.3 |
| 20260506145015 | 53 | 308 | 1.0 | 4.0 | 0.00 | 0.00 | 0.00 | 50 | 1014.2 |
| 20260506144016 | 53 | 304 | 1.0 | 3.0 | 0.00 | 0.00 | 0.00 | 51 | 1014.2 |
| 20260506143016 | 53 | 287 | 1.0 | 5.0 | 0.00 | 0.00 | 0.00 | 51 | 1014.2 |
| 20260506142016 | 52 | 307 | 0.0 | 2.0 | 0.00 | 0.00 | 0.00 | 54 | 1014.3 |
| 20260506141016 | 52 | 314 | 0.0 | 4.0 | 0.00 | 0.00 | 0.00 | 55 | 1014.3 |
| 20260506140016 | 51 | 321 | 0.0 | 2.0 | 0.00 | 0.00 | 0.00 | 57 | 1014.3 |
| 20260506135017 | 50 | 66 | 1.0 | 2.0 | 0.00 | 0.00 | 0.00 | 57 | 1014.1 |
| 20260506134028 | 49 | 53 | 0.0 | 1.0 | 0.00 | 0.00 | 0.00 | 62 | 1014.0 |
| 20260506133027 | 48 | 348 | 0.0 | 1.0 | 0.00 | 0.01 | 0.00 | 64 | 1013.7 |
| 20260506132028 | 47 | 339 | 1.0 | 2.0 | 0.00 | 0.01 | 0.00 | 66 | 1013.6 |
| 20260506131028 | 47 | 349 | 0.0 | 1.0 | 0.00 | 0.03 | 0.00 | 66 | 1013.4 |
| 20260506130028 | 46 | 12 | 0.0 | 2.0 | 0.00 | 0.04 | 0.00 | 69 | 1013.5 |
| 20260506125028 | 45 | 13 | 1.0 | 4.0 | 0.00 | 0.04 | 0.00 | 70 | 1013.4 |
| 20260506124049 | 45 | 29 | 1.0 | 2.0 | 0.00 | 0.06 | 0.00 | 70 | 1013.2 |
| 20260506123029 | 44 | 349 | 1.0 | 2.0 | 0.00 | 0.08 | 0.00 | 71 | 1013.1 |
| 20260506122049 | 43 | 335 | 2.0 | 4.0 | 0.00 | 0.10 | 0.00 | 73 | 1013.0 |
| 20260506121029 | 42 | 340 | 0.0 | 2.0 | 0.00 | 0.10 | 0.00 | 75 | 1012.8 |
| 20260506120036 | 42 | 11 | 1.0 | 4.0 | 0.00 | 0.10 | 0.00 | 76 | 1012.8 |
| 20260506115016 | 41 | 3 | 1.0 | 3.0 | 0.00 | 0.10 | 0.00 | 77 | 1012.6 |
| 20260506114019 | 41 | 355 | 2.0 | 5.0 | 0.00 | 0.10 | 0.00 | 77 | 1012.6 |
| 20260506113016 | 40 | 345 | 2.0 | 4.0 | 0.00 | 0.10 | 0.00 | 78 | 1012.4 |
| 20260506112036 | 40 | 311 | 1.0 | 3.0 | 0.00 | 0.10 | 0.00 | 79 | 1012.2 |
| 20260506111056 | 40 | 55 | 0.0 | 1.0 | 0.00 | 0.10 | 0.00 | 80 | 1012.1 |
| 20260506110016 | 39 | 0.0 | 0.0 | 0.00 | 0.10 | 0.00 | 81 | 1012.1 | |
| 20260506105017 | 40 | 0.0 | 0.0 | 0.00 | 0.10 | 0.00 | 78 | 1012.0 | |
| 20260506104037 | 40 | 14 | 0.0 | 2.0 | 0.00 | 0.10 | 0.00 | 78 | 1011.9 |
| 20260506103017 | 40 | 0.0 | 0.0 | 0.00 | 0.10 | 0.00 | 77 | 1011.6 | |
| 20260506102017 | 40 | 350 | 1.0 | 2.0 | 0.00 | 0.10 | 0.00 | 76 | 1011.5 |
| 20260506101017 | 41 | 339 | 0.0 | 2.0 | 0.00 | 0.10 | 0.00 | 75 | 1011.3 |
| 20260506100018 | 42 | 338 | 2.0 | 4.0 | 0.00 | 0.10 | 0.00 | 73 | 1011.3 |
| 20260506095018 | 42 | 17 | 1.0 | 3.0 | 0.00 | 0.10 | 0.00 | 71 | 1011.4 |
| 20260506094018 | 42 | 83 | 1.0 | 3.0 | 0.00 | 0.10 | 0.00 | 69 | 1011.4 |
| 20260506093018 | 42 | 335 | 1.0 | 3.0 | 0.00 | 0.10 | 0.00 | 70 | 1011.5 |
| 20260506092018 | 42 | 354 | 0.0 | 1.0 | 0.00 | 0.10 | 0.00 | 70 | 1011.5 |
| 20260506091018 | 43 | 339 | 0.0 | 2.0 | 0.00 | 0.10 | 0.00 | 69 | 1011.4 |
| 20260506090018 | 43 | 81 | 0.0 | 1.0 | 0.00 | 0.10 | 0.00 | 69 | 1011.3 |
| 20260506085039 | 43 | 93 | 1.0 | 3.0 | 0.00 | 0.10 | 0.00 | 67 | 1011.2 |
| 20260506084019 | 44 | 102 | 1.0 | 3.0 | 0.00 | 0.10 | 0.00 | 67 | 1011.1 |
| 20260506083019 | 45 | 87 | 2.0 | 3.0 | 0.00 | 0.10 | 0.00 | 64 | 1011.1 |
| 20260506082100 | 45 | 60 | 1.0 | 3.0 | 0.00 | 0.10 | 0.00 | 62 | 1011.2 |
| 20260506081019 | 46 | 60 | 1.0 | 3.0 | 0.00 | 0.10 | 0.00 | 61 | 1011.0 |
| 20260506073020 | 47 | 48 | 1.0 | 3.0 | 0.00 | 0.10 | 0.00 | 59 | 1010.6 |
| 20260506072020 | 47 | 43 | 2.0 | 4.0 | 0.00 | 0.10 | 0.00 | 58 | 1010.5 |
| 20260506071020 | 47 | 45 | 1.0 | 3.0 | 0.00 | 0.10 | 0.00 | 58 | 1010.3 |
| 20260506062022 | 47 | 39 | 1.0 | 2.0 | 0.00 | 0.10 | 0.00 | 61 | 1010.3 |
| 20260506061021 | 48 | 331 | 0.0 | 2.0 | 0.00 | 0.10 | 0.00 | 62 | 1010.3 |
| 20260506051043 | 49 | 335 | 0.0 | 1.0 | 0.00 | 0.10 | 0.00 | 64 | 1010.1 |
| 20260506045023 | 50 | 0.0 | 0.0 | 0.00 | 0.10 | 0.10 | 61 | 1009.9 | |
| 20260506044023 | 51 | 0.0 | 0.0 | 0.00 | 0.10 | 0.10 | 59 | 1010.1 | |
| 20260506043023 | 51 | 331 | 0.0 | 1.0 | 0.00 | 0.10 | 0.10 | 58 | 1010.2 |
| 20260506042023 | 51 | 336 | 0.0 | 1.0 | 0.00 | 0.10 | 0.10 | 57 | 1010.1 |
| 20260506041044 | 52 | 339 | 0.0 | 1.0 | 0.00 | 0.10 | 0.10 | 56 | 1010.3 |
| 20260506040024 | 52 | 320 | 0.0 | 2.0 | 0.00 | 0.10 | 0.10 | 55 | 1010.4 |
| 20260506035024 | 52 | 315 | 2.0 | 3.0 | 0.00 | 0.10 | 0.10 | 54 | 1010.5 |
| 20260506034025 | 52 | 322 | 0.0 | 1.0 | 0.00 | 0.10 | 0.10 | 54 | 1010.2 |
| 20260506033024 | 52 | 304 | 0.0 | 2.0 | 0.00 | 0.10 | 0.10 | 54 | 1010.2 |
| 20260506032024 | 51 | 321 | 0.0 | 1.0 | 0.00 | 0.10 | 0.10 | 54 | 1010.2 |
| 20260506031025 | 51 | 331 | 0.0 | 1.0 | 0.00 | 0.10 | 0.10 | 57 | 1010.2 |
| 20260506030025 | 52 | 0.0 | 0.0 | 0.00 | 0.10 | 0.10 | 55 | 1010.0 | |
| 20260506025025 | 52 | 0.0 | 0.0 | 0.00 | 0.10 | 0.10 | 53 | 1009.8 | |
| 20260506024106 | 52 | 0.0 | 0.0 | 0.00 | 0.10 | 0.10 | 53 | 1009.7 | |
| 20260506023026 | 52 | 0.0 | 0.0 | 0.00 | 0.10 | 0.10 | 52 | 1009.9 | |
| 20260506022025 | 52 | 0.0 | 0.0 | 0.00 | 0.10 | 0.10 | 52 | 1009.7 | |
| 20260506021026 | 52 | 338 | 0.0 | 2.0 | 0.00 | 0.10 | 0.10 | 52 | 1009.6 |
| 20260506020026 | 53 | 0.0 | 0.0 | 0.00 | 0.11 | 0.10 | 50 | 1009.4 | |
| 20260506015026 | 53 | 0.0 | 0.0 | 0.00 | 0.15 | 0.10 | 50 | 1009.3 | |
| 20260506014026 | 53 | 321 | 0.0 | 1.0 | 0.00 | 0.18 | 0.10 | 50 | 1009.2 |
| 20260506013026 | 53 | 310 | 0.0 | 2.0 | 0.00 | 0.20 | 0.10 | 49 | 1009.0 |
| 20260506012047 | 53 | 316 | 1.0 | 4.0 | 0.00 | 0.25 | 0.10 | 48 | 1008.9 |
| 20260506011027 | 53 | 340 | 1.0 | 3.0 | 0.00 | 0.27 | 0.10 | 48 | 1008.9 |
| 20260506010027 | 54 | 317 | 1.0 | 2.0 | 0.00 | 0.30 | 0.10 | 48 | 1008.9 |
| 20260506005027 | 54 | 331 | 1.0 | 3.0 | 0.00 | 0.32 | 0.10 | 47 | 1008.6 |
| 20260506004027 | 54 | 333 | 2.0 | 5.0 | 0.00 | 0.32 | 0.10 | 47 | 1008.6 |
| 20260506003028 | 54 | 313 | 1.0 | 3.0 | 0.00 | 0.33 | 0.10 | 48 | 1008.7 |
| 20260506002028 | 54 | 320 | 1.0 | 3.0 | 0.00 | 0.41 | 0.10 | 47 | 1008.5 |
| 20260506001048 | 55 | 315 | 1.0 | 3.0 | 0.00 | 0.58 | 0.10 | 45 | 1008.6 |
| 20260506000028 | 55 | 328 | 1.0 | 3.0 | 0.00 | 0.59 | 0.10 | 44 | 1008.4 |
| 20260505235049 | 55 | 335 | 2.0 | 3.0 | 0.00 | 0.60 | 0.10 | 44 | 1008.3 |
| 20260505234020 | 55 | 325 | 3.0 | 5.0 | 0.00 | 0.64 | 0.10 | 43 | 1008.4 |
| 20260505233029 | 55 | 327 | 1.0 | 3.0 | 0.00 | 0.65 | 0.10 | 44 | 1008.6 |
| 20260505232028 | 55 | 339 | 2.0 | 3.0 | 0.00 | 0.65 | 0.10 | 42 | 1008.4 |
| 20260505231029 | 55 | 331 | 1.0 | 5.0 | 0.00 | 0.65 | 0.10 | 42 | 1008.5 |
| 20260505230029 | 55 | 326 | 2.0 | 4.0 | 0.00 | 0.65 | 0.10 | 42 | 1008.7 |
| 20260505225018 | 55 | 323 | 2.0 | 4.0 | 0.00 | 0.67 | 0.10 | 41 | 1008.8 |
| 20260505224018 | 55 | 319 | 3.0 | 8.0 | 0.00 | 0.67 | 0.10 | 40 | 1008.9 |
| 20260505223018 | 56 | 323 | 2.0 | 6.0 | 0.00 | 0.67 | 0.10 | 41 | 1008.9 |
| 20260505222015 | 56 | 322 | 2.0 | 5.0 | 0.00 | 0.74 | 0.10 | 42 | 1008.9 |
| 20260505221018 | 55 | 316 | 2.0 | 5.0 | 0.00 | 0.74 | 0.10 | 44 | 1008.8 |
| 20260505220018 | 55 | 314 | 2.0 | 6.0 | 0.00 | 0.74 | 0.10 | 43 | 1008.8 |
| 20260505215016 | 55 | 315 | 2.0 | 6.0 | 0.00 | 0.74 | 0.10 | 43 | 1008.9 |
| 20260505214016 | 55 | 312 | 3.0 | 6.0 | 0.00 | 0.74 | 0.10 | 42 | 1009.0 |
| 20260505213016 | 55 | 313 | 3.0 | 6.0 | 0.00 | 0.74 | 0.10 | 44 | 1009.1 |
| 20260505212016 | 55 | 315 | 2.0 | 5.0 | 0.00 | 0.74 | 0.10 | 47 | 1009.1 |
| 20260505211158 | 55 | 314 | 2.0 | 4.0 | 0.00 | 0.74 | 0.10 | 45 | 1009.1 |
| 20260505210142 | 55 | 311 | 2.0 | 5.0 | 0.00 | 0.74 | 0.10 | 45 | 1009.2 |
| 20260505205017 | 55 | 317 | 3.0 | 6.0 | 0.00 | 0.74 | 0.10 | 44 | 1009.3 |